• In Germany
  • List of Countries
  • For 7 days
  • Water Temperature
  • Satellite Maps
  • Weather Map
  • Weather Widgets
  • user-avatar
    Login

    Hourly Weather Haradok

    Today, 27 July, Thursday

    Time Temperature Precipitation Wind Pressure Humidity
    00:00 +17°C° 0 mm 3 mps 739 mmHg 95%
    01:00 +17°C° 0 mm 3 mps 739 mmHg 96%
    02:00 +16°C° 0 mm 3 mps 740 mmHg 96%
    03:00 +16°C° 0 mm 3 mps 740 mmHg 96%
    04:00 +14°C° 0 mm 3 mps 740 mmHg 96%
    05:00 +14°C° 0 mm 3 mps 740 mmHg 96%
    06:00 +17°C° 0 mm 3 mps 741 mmHg 89%
    07:00 +18°C° 0 mm 3 mps 741 mmHg 83%
    08:00 +20°C° 0 mm 4 mps 741 mmHg 77%
    09:00 +21°C° 0 mm 4 mps 741 mmHg 71%
    10:00 +22°C° 0 mm 4 mps 742 mmHg 65%
    11:00 +23°C° 0 mm 4 mps 742 mmHg 59%
    12:00 +25°C° 0 mm 4 mps 742 mmHg 58%
    13:00 +26°C° 0 mm 3 mps 742 mmHg 56%
    14:00 +26°C° 0 mm 3 mps 742 mmHg 54%
    15:00 +26°C° 0 mm 3 mps 742 mmHg 56%
    16:00 +26°C° 0 mm 2 mps 742 mmHg 58%
    17:00 +26°C° 0 mm 2 mps 742 mmHg 60%
    18:00 +24°C° 0 mm 2 mps 742 mmHg 66%
    19:00 +23°C° 0 mm 1 mps 742 mmHg 72%
    20:00 +21°C° 0 mm 1 mps 742 mmHg 78%
    21:00 +20°C° 0 mm 1 mps 742 mmHg 80%
    22:00 +19°C° 0 mm 1 mps 742 mmHg 82%
    23:00 +19°C° 0 mm 1 mps 743 mmHg 84%

    Tomorrow, 28 July, Friday

    Time Temperature Precipitation Wind Pressure Humidity
    00:00 +18°C° 0 mm 1 mps 743 mmHg 85%
    01:00 +18°C° 0 mm 1 mps 743 mmHg 86%
    02:00 +18°C° 0 mm 1 mps 743 mmHg 87%
    03:00 +18°C° 0 mm 1 mps 743 mmHg 87%
    04:00 +18°C° 0 mm 1 mps 743 mmHg 88%
    05:00 +18°C° 0 mm 1 mps 743 mmHg 88%
    06:00 +20°C° 0 mm 1 mps 743 mmHg 83%
    07:00 +21°C° 0 mm 1 mps 743 mmHg 77%
    08:00 +23°C° 0 mm 1 mps 743 mmHg 72%
    09:00 +24°C° 0.6 mm 2 mps 743 mmHg 72%
    10:00 +24°C° 0.6 mm 2 mps 743 mmHg 73%
    11:00 +25°C° 0.6 mm 2 mps 743 mmHg 73%
    12:00 +23°C° 0.8 mm 2 mps 743 mmHg 78%
    13:00 +21°C° 0.8 mm 2 mps 743 mmHg 83%
    14:00 +20°C° 0.8 mm 2 mps 743 mmHg 88%
    15:00 +21°C° 0.1 mm 1 mps 743 mmHg 87%
    16:00 +22°C° 0.1 mm 1 mps 742 mmHg 85%
    17:00 +22°C° 0.1 mm 1 mps 742 mmHg 83%
    18:00 +21°C° 0.1 mm 1 mps 742 mmHg 86%
    19:00 +20°C° 0.1 mm 1 mps 742 mmHg 89%
    20:00 +19°C° 0.1 mm 1 mps 742 mmHg 92%
    21:00 +19°C° 0 mm 1 mps 742 mmHg 93%
    22:00 +18°C° 0 mm 1 mps 742 mmHg 94%
    23:00 +17°C° 0 mm 2 mps 743 mmHg 95%

    Day after tomorrow, 29 July, Saturday

    Time Temperature Precipitation Wind Pressure Humidity
    00:00 +16°C° 0 mm 2 mps 743 mmHg 96%
    01:00 +16°C° 0 mm 2 mps 743 mmHg 96%
    02:00 +16°C° 0 mm 2 mps 743 mmHg 97%
    03:00 +16°C° 0 mm 2 mps 743 mmHg 97%
    04:00 +15°C° 0 mm 2 mps 744 mmHg 96%
    05:00 +14°C° 0 mm 3 mps 744 mmHg 96%
    06:00 +16°C° 0 mm 3 mps 744 mmHg 92%
    07:00 +17°C° 0 mm 3 mps 744 mmHg 88%
    08:00 +18°C° 0 mm 3 mps 745 mmHg 84%
    09:00 +19°C° 0 mm 3 mps 745 mmHg 75%
    10:00 +21°C° 0 mm 3 mps 745 mmHg 66%
    11:00 +22°C° 0 mm 4 mps 745 mmHg 57%
    12:00 +22°C° 0 mm 4 mps 745 mmHg 54%
    13:00 +23°C° 0 mm 4 mps 745 mmHg 52%
    14:00 +23°C° 0 mm 4 mps 745 mmHg 49%
    15:00 +23°C° 0 mm 4 mps 745 mmHg 52%
    16:00 +23°C° 0 mm 4 mps 746 mmHg 54%
    17:00 +23°C° 0 mm 4 mps 746 mmHg 57%
    18:00 +21°C° 0 mm 3 mps 746 mmHg 65%
    19:00 +19°C° 0 mm 3 mps 746 mmHg 74%
    20:00 +18°C° 0 mm 2 mps 746 mmHg 82%
    21:00 +17°C° 0 mm 2 mps 747 mmHg 86%
    22:00 +16°C° 0 mm 2 mps 747 mmHg 90%
    23:00 +15°C° 0 mm 2 mps 747 mmHg 94%

    30 July, Sunday

    Time Temperature Precipitation Wind Pressure Humidity
    00:00 +15°C° 0 mm 2 mps 747 mmHg 94%
    01:00 +14°C° 0 mm 2 mps 748 mmHg 95%
    02:00 +14°C° 0 mm 2 mps 748 mmHg 95%
    03:00 +14°C° 0 mm 2 mps 748 mmHg 95%
    04:00 +13°C° 0 mm 2 mps 748 mmHg 95%
    05:00 +13°C° 0 mm 2 mps 748 mmHg 95%
    06:00 +15°C° 0 mm 2 mps 748 mmHg 88%
    07:00 +17°C° 0 mm 3 mps 748 mmHg 82%
    08:00 +19°C° 0 mm 3 mps 748 mmHg 75%
    09:00 +21°C° 0 mm 4 mps 749 mmHg 70%
    10:00 +22°C° 0 mm 4 mps 749 mmHg 65%
    11:00 +23°C° 0 mm 5 mps 749 mmHg 60%
    12:00 +25°C° 0.1 mm 5 mps 749 mmHg 60%
    13:00 +25°C° 0.1 mm 5 mps 749 mmHg 59%
    14:00 +26°C° 0.1 mm 5 mps 748 mmHg 59%
    15:00 +26°C° 0.1 mm 4 mps 748 mmHg 61%
    16:00 +26°C° 0.1 mm 4 mps 748 mmHg 63%
    17:00 +26°C° 0.1 mm 4 mps 748 mmHg 66%
    18:00 +24°C° 0 mm 3 mps 748 mmHg 72%
    19:00 +22°C° 0 mm 3 mps 748 mmHg 79%
    20:00 +20°C° 0 mm 2 mps 748 mmHg 85%
    21:00 +19°C° 0 mm 2 mps 749 mmHg 88%
    22:00 +19°C° 0 mm 2 mps 749 mmHg 91%
    23:00 +18°C° 0 mm 2 mps 749 mmHg 93%

    31 July, Monday

    Time Temperature Precipitation Wind Pressure Humidity
    00:00 +18°C° 0 mm 2 mps 749 mmHg 94%
    01:00 +17°C° 0 mm 2 mps 749 mmHg 95%
    02:00 +17°C° 0 mm 2 mps 748 mmHg 96%
    03:00 +17°C° 0 mm 2 mps 748 mmHg 95%
    04:00 +17°C° 0 mm 2 mps 748 mmHg 95%
    05:00 +17°C° 0 mm 2 mps 748 mmHg 95%
    06:00 +19°C° 0 mm 3 mps 748 mmHg 88%
    07:00 +21°C° 0 mm 4 mps 748 mmHg 82%
    08:00 +23°C° 0 mm 4 mps 748 mmHg 76%
    09:00 +26°C° 0.3 mm 4 mps 748 mmHg 74%
    10:00 +27°C° 0.3 mm 4 mps 748 mmHg 72%
    11:00 +28°C° 0.3 mm 5 mps 748 mmHg 70%
    12:00 +28°C° 1.3 mm 4 mps 748 mmHg 72%
    13:00 +29°C° 1.3 mm 4 mps 748 mmHg 73%
    14:00 +29°C° 1.3 mm 4 mps 748 mmHg 75%
    15:00 +28°C° 0.9 mm 3 mps 748 mmHg 77%
    16:00 +28°C° 0.9 mm 3 mps 748 mmHg 78%
    17:00 +28°C° 0.9 mm 2 mps 748 mmHg 80%
    18:00 +27°C° 0.1 mm 2 mps 748 mmHg 84%
    19:00 +25°C° 0.1 mm 2 mps 748 mmHg 87%
    20:00 +24°C° 0.1 mm 2 mps 749 mmHg 90%
    21:00 +23°C° 0 mm 2 mps 749 mmHg 91%
    22:00 +23°C° 0 mm 2 mps 749 mmHg 93%
    23:00 +21°C° 0 mm 2 mps 749 mmHg 94%

    1 August, Tuesday

    Time Temperature Precipitation Wind Pressure Humidity
    00:00 +22°C° 0 mm 1 mps 750 mmHg 94%
    01:00 +21°C° 0 mm 1 mps 750 mmHg 94%
    02:00 +21°C° 0 mm 1 mps 750 mmHg 95%
    03:00 +20°C° 0 mm 1 mps 750 mmHg 94%
    04:00 +20°C° 0 mm 1 mps 751 mmHg 94%
    05:00 +20°C° 0 mm 1 mps 751 mmHg 94%
    06:00 +21°C° 0 mm 1 mps 751 mmHg 88%
    07:00 +23°C° 0 mm 1 mps 751 mmHg 83%
    08:00 +24°C° 0 mm 1 mps 752 mmHg 78%
    09:00 +26°C° 0 mm 1 mps 752 mmHg 71%
    10:00 +27°C° 0 mm 1 mps 752 mmHg 65%
    11:00 +28°C° 0 mm 2 mps 752 mmHg 58%
    12:00 +29°C° 0 mm 2 mps 752 mmHg 56%
    13:00 +29°C° 0 mm 2 mps 752 mmHg 55%
    14:00 +30°C° 0 mm 2 mps 752 mmHg 53%
    15:00 +30°C° 0 mm 2 mps 752 mmHg 54%
    16:00 +30°C° 0 mm 1 mps 752 mmHg 55%
    17:00 +29°C° 0 mm 1 mps 752 mmHg 56%
    18:00 +28°C° 0 mm 1 mps 752 mmHg 63%
    19:00 +26°C° 0 mm 1 mps 752 mmHg 69%
    20:00 +24°C° 0 mm 1 mps 752 mmHg 76%
    21:00 +23°C° 0 mm 1 mps 752 mmHg 79%
    22:00 +22°C° 0 mm 1 mps 752 mmHg 81%
    23:00 +21°C° 0 mm 2 mps 752 mmHg 84%
    Show more